Date,TemperatureHighF,TemperatureAvgF,TemperatureLowF,DewpointHighF,DewpointAvgF,DewpointLowF,HumidityHigh,HumidityAvg,HumidityLow,PressureMaxIn,PressureMinIn,WindSpeedMaxMPH,WindSpeedAvgMPH,GustSpeedMaxMPH,PrecipitationSumIn
2013-1-1,36,31,18,15,8,-5,45,37,31,29.68,29.50,13,6,14,0.00
2013-1-2,26,20,9,5,-1,-7,54,40,32,29.85,29.65,12,4,12,0.00
2013-1-3,26,18,8,6,-4,-16,49,36,30,29.88,29.74,10,3,10,0.00
2013-1-4,37,30,22,13,9,5,54,42,31,29.77,29.62,15,6,15,0.00
2013-1-5,43,32,23,14,9,6,56,40,28,30.03,29.68,16,4,232,0.00
2013-1-6,42,32,24,21,16,11,71,54,33,29.97,29.71,13,2,13,0.00
2013-1-7,37,30,20,24,13,6,76,51,29,30.15,29.77,13,2,13,0.00
2013-1-8,45,32,17,20,14,6,75,51,28,30.18,30.06,13,2,13,0.00
2013-1-9,43,34,21,26,21,15,78,61,39,30.18,29.88,13,2,13,0.00
2013-1-10,43,37,28,24,13,7,55,39,23,30.36,29.94,17,4,17,0.00
2013-1-11,38,32,24,34,22,13,88,67,42,30.36,30.00,5,0,5,0.31
2013-1-12,50,41,37,47,39,34,98,93,82,30.06,29.97,6,0,6,0.08
2013-1-13,49,44,39,48,42,39,98,92,78,30.06,29.91,11,1,11,0.04
2013-1-14,55,46,35,54,35,14,98,71,34,30.24,29.83,12,3,12,0.00
2013-1-15,38,34,31,20,15,12,56,45,38,30.27,30.15,8,2,8,0.00
2013-1-16,36,32,30,33,27,12,91,81,40,30.21,29.80,8,0,8,0.00
2013-1-17,39,34,27,30,18,0,88,55,31,30.09,29.83,14,4,14,0.28
2013-1-18,27,22,18,1,-6,-12,35,29,21,30.45,30.00,17,4,17,0.00
2013-1-19,42,34,22,22,11,-3,58,38,29,30.36,29.94,16,4,16,0.00
2013-1-20,50,39,26,21,11,-6,53,32,17,30.03,29.68,24,6,24,0.00
2013-1-21,30,24,20,15,3,-8,69,41,23,30.12,29.80,10,2,10,0.00
2013-1-22,20,16,9,11,0,-20,71,52,24,30.18,29.80,11,4,11,0.00
2013-1-23,16,9,4,-14,-20,-25,26,24,24,30.24,30.15,14,4,14,0.00
2013-1-24,19,10,0,-12,-20,-28,26,24,23,30.24,29.56,23,5,23,0.00
2013-1-25,21,16,9,3,-12,-21,55,28,22,29.74,29.44,11,3,11,0.00
2013-1-26,22,16,9,3,-5,-12,58,41,25,29.71,29.41,14,4,14,0.00
2013-1-27,31,21,12,1,-7,-11,49,30,20,29.85,29.71,14,4,14,0.00
2013-1-28,39,26,16,33,13,-6,86,59,34,29.85,29.38,8,1,8,0.00
2013-1-29,37,34,30,32,28,25,87,81,71,29.56,29.38,6,0,6,0.12
2013-1-30,56,46,35,56,44,32,98,95,87,29.53,28.85,17,2,17,0.08
2013-1-31,59,44,28,58,24,-2,98,51,21,29.09,28.44,31,11,31,1.22
2013-2-1,30,25,20,7,-2,-8,46,30,20,29.56,29.09,23,8,23,0.00
2013-2-2,30,22,13,11,-2,-9,62,37,20,29.65,29.44,14,5,14,0.00
2013-2-3,31,23,17,12,6,2,68,50,31,29.44,29.15,9,2,9,0.00
2013-2-4,29,23,19,12,-1,-9,64,37,21,29.35,29.18,17,5,17,0.00
2013-2-5,30,25,22,18,8,-3,69,49,32,29.38,29.29,107,0,232,0.00
2013-2-6,37,30,23,20,9,-10,76,47,21,29.74,29.32,15,4,15,0.00
2013-2-7,33,24,16,2,-6,-13,44,27,20,29.85,29.74,8,1,8,0.00
2013-2-8,31,27,22,27,17,1,96,70,33,29.83,29.03,22,7,22,0.00
2013-2-9,27,22,16,22,5,-11,93,55,21,29.68,29.12,28,9,28,0.00
2013-2-10,38,23,13,11,-7,-15,46,27,19,29.83,29.68,10,3,10,0.04
2013-2-11,41,28,20,38,15,2,91,61,45,29.74,29.29,6,0,6,0.04
2013-2-22,40,36,33,17,12,8,51,38,29,29.77,29.68,9,2,9,0.04
2013-2-23,41,35,33,38,27,17,98,76,51,29.68,29.26,8,2,8,0.08
2013-2-24,42,36,32,34,26,14,98,70,42,29.32,29.12,13,4,13,0.04
2013-2-25,45,36,28,23,14,11,60,42,27,29.65,29.32,13,3,13,0.04
2013-2-26,44,34,26,27,17,12,78,51,29,29.71,29.44,11,3,11,0.04
2013-2-27,34,34,33,33,30,28,93,85,79,29.44,29.32,10,4,10,0.16
2013-3-3,29,28,27,11,8,7,46,43,42,29.12,29.09,10,6,13,0.00
2013-3-4,38,31,26,11,9,7,50,40,29,29.23,29.12,20,8,20,0.00
2013-3-5,50,37,28,17,12,10,51,38,21,29.44,29.23,12,4,12,0.16
2013-3-6,40,37,34,30,21,16,77,54,40,29.41,29.35,22,8,26,0.00
2013-3-7,37,34,31,29,23,15,86,66,42,29.44,29.35,18,6,18,0.16
2013-3-8,40,34,30,32,23,12,86,68,35,29.56,29.35,12,2,12,0.16
2013-3-9,59,41,30,15,11,5,50,31,17,29.74,29.56,10,3,10,0.20
2013-3-10,53,38,24,24,19,15,74,49,26,29.80,29.71,8,1,8,0.16
2013-3-11,53,44,36,41,30,0,82,61,37,29.71,29.53,10,2,10,0.16
2013-3-12,54,49,39,52,46,28,95,88,63,29.53,29.12,17,4,17,1.10
2013-3-13,51,40,30,28,16,5,73,41,19,29.26,29.18,17,4,17,0.16
2013-3-14,35,34,32,22,16,13,68,47,40,29.23,29.23,9,4,9,0.00
2013-3-16,39,34,31,22,17,6,67,52,26,29.29,29.18,9,4,9,0.00
2013-3-17,36,30,23,19,1,-8,62,31,19,29.71,29.29,18,4,18,0.00
2013-3-18,37,28,20,25,0,-9,85,33,19,29.83,29.50,11,3,11,0.00
2013-3-19,38,33,29,32,28,23,91,83,62,29.50,29.06,12,4,12,0.35
2013-3-20,42,32,26,28,8,0,82,37,21,29.23,29.15,18,3,18,0.00
2013-3-21,39,32,27,13,5,-5,52,33,19,29.23,29.03,11,2,11,0.00
2013-3-22,39,31,21,11,5,-6,43,34,23,29.23,29.09,17,6,17,0.00
2013-3-23,45,36,30,12,8,1,44,31,18,29.29,29.15,22,8,232,0.00
2013-3-24,48,37,28,11,9,5,43,31,19,29.29,29.12,14,4,14,0.00
2013-3-25,44,38,32,15,12,10,42,35,25,29.15,28.88,15,6,15,0.00
2013-3-26,51,40,31,18,10,4,47,31,19,29.23,28.97,13,3,13,0.00
2013-3-27,54,40,27,17,11,6,53,33,18,29.32,29.23,17,4,17,0.00
2013-3-28,50,42,34,26,19,13,60,41,27,29.47,29.32,16,5,16,0.00
2013-3-29,55,44,35,21,16,10,49,33,18,29.50,29.41,16,5,16,0.00
2013-3-30,62,44,31,21,14,3,61,33,16,29.53,29.44,14,3,14,0.00
2013-3-31,57,42,28,37,16,10,78,37,17,29.53,29.09,17,3,17,0.12
2013-4-1,62,45,32,41,28,0,89,56,24,29.26,29.00,24,5,24,0.08
2013-4-2,41,34,27,9,2,-4,42,26,18,29.41,29.26,24,8,24,0.00
2013-4-3,47,35,28,4,1,-6,32,23,17,29.65,29.41,17,7,17,0.00
2013-4-4,60,40,28,20,8,-1,49,28,17,29.77,29.50,15,4,15,0.00
2013-4-5,61,46,37,21,13,3,51,29,16,29.50,29.12,16,4,16,0.00
2013-4-6,54,39,31,11,3,-4,37,23,15,29.71,29.38,17,5,17,0.00
2013-4-7,57,44,30,37,18,0,72,38,20,29.71,29.41,19,4,19,0.00
2013-4-8,73,54,38,41,28,17,87,45,13,29.47,29.38,10,2,10,0.00
2013-4-9,77,62,49,46,31,19,79,37,13,29.44,29.29,17,3,17,0.00
2013-4-10,58,57,52,37,28,24,56,33,28,29.35,29.26,12,2,12,0.04
2013-4-11,58,52,43,39,25,9,64,36,19,29.50,29.38,10,4,10,0.04
2013-4-12,43,39,36,36,30,19,91,72,40,29.50,29.18,15,6,15,0.24
2013-4-13,58,45,35,34,26,18,90,51,22,29.35,29.18,10,2,10,0.08
2013-4-14,54,46,38,27,17,6,55,33,18,29.62,29.35,14,4,230,0.04
2013-4-15,66,47,34,21,17,12,53,32,15,29.80,29.62,9,2,9,0.04
2013-4-16,66,52,38,49,34,20,79,53,30,29.80,29.53,15,3,15,0.04
2013-4-17,72,57,49,49,25,13,82,34,14,29.74,29.53,17,3,17,0.04
2013-4-18,62,52,39,41,24,14,65,36,16,29.80,29.56,15,3,15,0.04
2013-4-19,70,61,52,61,53,41,98,76,45,29.56,29.09,20,4,20,0.04
2013-4-20,63,51,40,60,26,8,92,46,16,29.68,29.09,15,6,15,0.28
2013-4-21,61,43,32,19,9,1,41,26,16,30.03,29.68,13,4,13,0.04
2013-4-22,64,47,34,23,17,7,60,34,15,30.09,29.94,14,4,15,0.04
2013-4-23,46,41,36,33,25,17,71,54,40,29.94,29.50,163,6,163,0.04
2013-4-24,43,42,42,35,34,33,74,72,71,29.50,29.44,8,3,8,0.00
2013-4-25,69,58,43,20,16,11,36,19,15,29.68,29.56,15,3,15,0.00
2013-4-26,68,52,34,21,17,10,55,28,15,29.83,29.68,10,2,10,0.00
2013-4-27,75,55,36,24,18,13,47,25,13,29.83,29.68,10,2,10,0.00
2013-4-28,73,57,40,30,21,11,61,29,13,29.74,29.62,14,2,14,0.00
2013-4-29,61,55,49,36,28,18,55,36,22,29.68,29.62,10,2,10,0.00
2013-4-30,76,58,44,36,22,10,66,29,13,29.77,29.65,11,2,11,0.00
2013-5-1,78,56,37,34,22,14,56,30,13,29.88,29.77,10,2,10,0.00
2013-5-2,86,61,40,38,28,18,76,37,11,29.88,29.71,13,2,13,0.00
2013-5-3,59,52,48,25,21,19,37,30,25,29.88,29.83,10,4,10,0.00